Location: Nebula Knoll Observatory
(43.6666°N, 71.0000°W)
Time: 14:35:21
(UTC-04:00)

Cosmos 1782 - Visible Passes

Search period start: 21 May 2018 00:00
Search period end: 31 May 2018 00:00
Orbit: 540 x 552 km, 82.5° (Epoch: 20 May)

Date Brightness Start Highest point End Pass type
(mag) Time Alt. Az. Time Alt. Az. Time Alt. Az.
25 May 6.7 04:29:29 10° ENE 04:30:04 10° ENE 04:30:38 10° ENE visible
26 May 6.5 04:23:24 10° NE 04:24:28 11° ENE 04:25:31 10° E visible
27 May 6.4 04:17:30 10° NE 04:18:51 11° ENE 04:20:14 10° E visible
28 May 6.2 04:11:39 10° NE 04:13:16 12° ENE 04:14:52 10° E visible
29 May 6.1 04:05:50 10° NE 04:07:40 13° ENE 04:09:29 10° E visible
30 May 6.0 04:00:03 10° NE 04:02:04 13° ENE 04:04:03 10° E visible
